QPF
0.08 0.08 0.06 0.06 0.05 0.06 0.07 0.07 0.07 0.07 0.07 0.09 0.16 0.19 0.12 0.05 0.04 0.04 0.04 0.06 0.08 0.08 0.10 0.17 0.20 0.23 0.30 0.22 0.15 0.13 0.13 0.11 0.11 0.10 0.11 0.13 0.13 0.14 0.18 0.18 0.16 0.10 0.12
0.08 0.13 0.08 0.06 0.04 0.05 0.05 0.07 0.05 0.04 0.04 0.07 0.18 0.20 0.07 0.04 0.04 0.05 0.04 0.05 0.06 0.08 0.08 0.14 0.17 0.27 0.34 0.21 0.14 0.15 0.15 0.14 0.13 0.09 0.10 0.16 0.16 0.15 0.16 0.22 0.25 0.18 0.14
0.07 0.10 0.09 0.06 0.06 0.07 0.07 0.06 0.04 0.04 0.04 0.05 0.10 0.09 0.04 0.04 0.04 0.04 0.05 0.06 0.07 0.08 0.09 0.13 0.21 0.28 0.24 0.18 0.16 0.16 0.20 0.20 0.16 0.14 0.15 0.16 0.16 0.16 0.17 0.15 0.13 0.11 0.09
0.09 0.12 0.11 0.09 0.10 0.09 0.08 0.06 0.05 0.04 0.05 0.06 0.06 0.05 0.05 0.05 0.04 0.04 0.06 0.06 0.07 0.09 0.11 0.14 0.19 0.21 0.15 0.16 0.16 0.18 0.24 0.20 0.15 0.14 0.12 0.09 0.10 0.12 0.15 0.12 0.09 0.10 0.08
0.09 0.11 0.10 0.07 0.08 0.09 0.08 0.07 0.08 0.10 0.09 0.08 0.07 0.06 0.06 0.04 0.03 0.03 0.04 0.06 0.07 0.10 0.13 0.16 0.19 0.16 0.12 0.11 0.13 0.19 0.25 0.22 0.18 0.11 0.10 0.11 0.10 0.11 0.10 0.09 0.08 0.09 0.09
0.08 0.08 0.12 0.11 0.09 0.08 0.08 0.10 0.14 0.15 0.12 0.08 0.06 0.06 0.05 0.05 0.05 0.04 0.06 0.06 0.07 0.07 0.09 0.11 0.11 0.09 0.08 0.08 0.11 0.20 0.23 0.20 0.13 0.07 0.07 0.09 0.11 0.11 0.10 0.09 0.08 0.09 0.10
0.09 0.14 0.25 0.21 0.10 0.08 0.08 0.09 0.11 0.15 0.11 0.05 0.05 0.04 0.04 0.04 0.05 0.06 0.07 0.07 0.07 0.06 0.06 0.06 0.06 0.07 0.08 0.07 0.09 0.18 0.23 0.16 0.07 0.04 0.05 0.06 0.07 0.08 0.08 0.09 0.09 0.11 0.12
0.08 0.16 0.21 0.11 0.07 0.08 0.09 0.08 0.09 0.10 0.08 0.06 0.05 0.05 0.04 0.05 0.05 0.06 0.08 0.08 0.06 0.05 0.05 0.04 0.05 0.08 0.09 0.09 0.11 0.20 0.23 0.12 0.07 0.05 0.08 0.06 0.05 0.05 0.06 0.07 0.08 0.08 0.09
0.06 0.12 0.13 0.07 0.06 0.08 0.08 0.08 0.08 0.10 0.12 0.09 0.07 0.06 0.05 0.04 0.04 0.05 0.07 0.06 0.07 0.07 0.06 0.05 0.05 0.07 0.07 0.08 0.13 0.20 0.17 0.11 0.10 0.09 0.06 0.06 0.05 0.05 0.06 0.07 0.06 0.06 0.08
0.03 0.05 0.06 0.05 0.06 0.09 0.09 0.08 0.08 0.10 0.11 0.10 0.08 0.07 0.06 0.06 0.07 0.07 0.08 0.08 0.08 0.09 0.08 0.08 0.07 0.06 0.06 0.10 0.15 0.18 0.14 0.12 0.13 0.09 0.06 0.05 0.05 0.04 0.05 0.05 0.05 0.04 0.05
0.02 0.02 0.02 0.02 0.03 0.04 0.04 0.05 0.06 0.09 0.08 0.07 0.07 0.07 0.06 0.07 0.08 0.09 0.10 0.09 0.08 0.09 0.08 0.07 0.08 0.08 0.10 0.17 0.15 0.16 0.13 0.10 0.08 0.08 0.08 0.07 0.06 0.04 0.06 0.06 0.06 0.05 0.05
0.01 0.02 0.02 0.02 0.03 0.03 0.03 0.05 0.06 0.07 0.09 0.08 0.07 0.06 0.06 0.07 0.08 0.07 0.09 0.10 0.10 0.11 0.10 0.08 0.09 0.08 0.11 0.14 0.13 0.12 0.10 0.09 0.09 0.09 0.09 0.07 0.06 0.06 0.08 0.08 0.07 0.06 0.08
0.03 0.02 0.02 0.02 0.03 0.04 0.03 0.03 0.04 0.04 0.05 0.06 0.04 0.04 0.07 0.08 0.06 0.05 0.06 0.09 0.13 0.14 0.13 0.10 0.08 0.05 0.05 0.07 0.08 0.09 0.11 0.11 0.10 0.09 0.11 0.09 0.06 0.04 0.06 0.09 0.09 0.10 0.10
0.04 0.04 0.03 0.04 0.07 0.05 0.03 0.02 0.02 0.03 0.03 0.04 0.04 0.03 0.06 0.11 0.11 0.10 0.07 0.06 0.11 0.16 0.18 0.14 0.10 0.06 0.04 0.04 0.05 0.08 0.09 0.08 0.08 0.09 0.11 0.08 0.06 0.04 0.04 0.07 0.11 0.11 0.09
0.05 0.08 0.10 0.14 0.12 0.05 0.03 0.03 0.03 0.03 0.04 0.04 0.04 0.03 0.06 0.15 0.19 0.23 0.18 0.09 0.09 0.16 0.19 0.15 0.10 0.08 0.06 0.06 0.07 0.07 0.07 0.07 0.08 0.09 0.08 0.07 0.06 0.05 0.05 0.09 0.12 0.11 0.10
0.06 0.10 0.14 0.13 0.08 0.04 0.04 0.04 0.04 0.04 0.05 0.06 0.05 0.05 0.06 0.14 0.17 0.24 0.29 0.17 0.12 0.16 0.15 0.13 0.11 0.09 0.09 0.08 0.07 0.07 0.07 0.07 0.08 0.10 0.09 0.09 0.09 0.08 0.08 0.09 0.10 0.11 0.10
0.06 0.08 0.11 0.10 0.08 0.05 0.04 0.04 0.03 0.03 0.04 0.05 0.06 0.06 0.06 0.09 0.14 0.15 0.21 0.20 0.17 0.20 0.14 0.12 0.15 0.17 0.13 0.10 0.10 0.08 0.07 0.07 0.07 0.10 0.09 0.12 0.15 0.14 0.13 0.12 0.12 0.13 0.14
0.06 0.09 0.11 0.09 0.06 0.05 0.05 0.03 0.02 0.03 0.04 0.05 0.05 0.04 0.05 0.05 0.08 0.13 0.14 0.18 0.22 0.26 0.15 0.15 0.22 0.24 0.16 0.13 0.12 0.09 0.07 0.07 0.07 0.10 0.10 0.11 0.11 0.09 0.08 0.07 0.07 0.10 0.11
0.06 0.08 0.09 0.07 0.05 0.04 0.04 0.02 0.02 0.03 0.03 0.03 0.03 0.03 0.03 0.03 0.04 0.08 0.11 0.13 0.19 0.28 0.22 0.21 0.22 0.19 0.14 0.13 0.11 0.09 0.07 0.06 0.05 0.07 0.10 0.09 0.09 0.08 0.08 0.07 0.06 0.08 0.10
0.06 0.06 0.06 0.05 0.03 0.03 0.03 0.02 0.03 0.02 0.02 0.02 0.02 0.02 0.02 0.02 0.03 0.05 0.06 0.07 0.11 0.21 0.25 0.25 0.22 0.16 0.13 0.12 0.10 0.09 0.06 0.06 0.05 0.05 0.07 0.09 0.09 0.08 0.08 0.07 0.08 0.09 0.08
0.02 0.03 0.04 0.03 0.02 0.02 0.02 0.02 0.03 0.02 0.02 0.02 0.03 0.03 0.04 0.03 0.03 0.04 0.04 0.05 0.07 0.13 0.14 0.16 0.20 0.18 0.16 0.12 0.12 0.14 0.11 0.08 0.07 0.08 0.07 0.07 0.07 0.08 0.08 0.09 0.10 0.11 0.10
0.02 0.03 0.02 0.03 0.03 0.03 0.03 0.03 0.02 0.02 0.02 0.02 0.03 0.04 0.04 0.03 0.04 0.04 0.04 0.06 0.07 0.09 0.09 0.10 0.13 0.12 0.10 0.09 0.10 0.13 0.13 0.11 0.11 0.09 0.08 0.07 0.06 0.06 0.06 0.07 0.08 0.12 0.14
0.02 0.05 0.03 0.02 0.02 0.02 0.03 0.03 0.03 0.03 0.03 0.03 0.04 0.04 0.04 0.05 0.06 0.06 0.06 0.06 0.05 0.04 0.05 0.06 0.07 0.07 0.08 0.06 0.06 0.09 0.09 0.10 0.11 0.12 0.10 0.09 0.08 0.06 0.06 0.07 0.09 0.12 0.16
0.02 0.05 0.04 0.02 0.02 0.03 0.04 0.03 0.03 0.03 0.04 0.04 0.05 0.03 0.05 0.07 0.08 0.06 0.04 0.03 0.02 0.02 0.03 0.05 0.06 0.06 0.08 0.08 0.08 0.06 0.06 0.05 0.07 0.09 0.10 0.09 0.08 0.07 0.07 0.06 0.06 0.08 0.11
0.02 0.05 0.03 0.01 0.01 0.03 0.04 0.02 0.01 0.02 0.02 0.04 0.04 0.03 0.04 0.04 0.04 0.02 0.01 0.02 0.02 0.02 0.03 0.06 0.08 0.06 0.05 0.05 0.04 0.04 0.06 0.06 0.06 0.06 0.07 0.08 0.08 0.07 0.06 0.07 0.06 0.08 0.10
0.04 0.03 0.02 0.01 0.01 0.02 0.02 0.01 0.01 0.02 0.02 0.01 0.02 0.01 0.02 0.02 0.02 0.02 0.01 0.01 0.01 0.01 0.03 0.06 0.07 0.07 0.06 0.04 0.04 0.03 0.04 0.06 0.06 0.05 0.06 0.07 0.08 0.08 0.07 0.07 0.08 0.08 0.08
MSLP
1003.30 1003.15 1003.30 1003.69 1004.23 1004.82 1005.35 1005.77 1006.06 1006.24 1006.38 1006.56 1006.83 1007.22 1007.72 1008.28 1008.86 1009.39 1009.83 1010.19 1010.47 1010.71 1010.96 1011.23 1011.53 1011.85 1012.15 1012.40 1012.57 1012.66 1012.67 1012.65 1012.63 1012.66 1012.76 1012.93 1013.14 1013.38 1013.61 1013.80 1013.96 1014.09 1014.20
1003.07 1003.00 1003.18 1003.60 1004.15 1004.73 1005.25 1005.65 1005.94 1006.13 1006.29 1006.50 1006.79 1007.21 1007.72 1008.30 1008.87 1009.40 1009.84 1010.20 1010.49 1010.75 1011.02 1011.33 1011.66 1012.01 1012.34 1012.59 1012.75 1012.82 1012.80 1012.75 1012.70 1012.71 1012.79 1012.95 1013.18 1013.43 1013.68 1013.91 1014.09 1014.23 1014.36
1002.85 1002.84 1003.08 1003.52 1004.06 1004.63 1005.14 1005.54 1005.83 1006.03 1006.21 1006.43 1006.74 1007.16 1007.67 1008.22 1008.78 1009.29 1009.72 1010.07 1010.38 1010.67 1010.98 1011.32 1011.70 1012.08 1012.42 1012.69 1012.85 1012.90 1012.87 1012.80 1012.74 1012.74 1012.82 1012.98 1013.22 1013.49 1013.76 1014.00 1014.20 1014.37 1014.52
1002.65 1002.70 1002.97 1003.42 1003.96 1004.52 1005.02 1005.42 1005.72 1005.94 1006.13 1006.37 1006.68 1007.08 1007.57 1008.09 1008.62 1009.11 1009.53 1009.90 1010.22 1010.55 1010.90 1011.29 1011.70 1012.10 1012.46 1012.73 1012.89 1012.95 1012.92 1012.85 1012.80 1012.80 1012.89 1013.06 1013.30 1013.58 1013.86 1014.12 1014.33 1014.52 1014.68
1002.46 1002.54 1002.81 1003.24 1003.77 1004.31 1004.81 1005.23 1005.55 1005.80 1006.03 1006.29 1006.60 1007.00 1007.46 1007.96 1008.46 1008.93 1009.35 1009.74 1010.10 1010.46 1010.86 1011.28 1011.72 1012.14 1012.51 1012.78 1012.95 1013.02 1013.00 1012.96 1012.92 1012.95 1013.05 1013.23 1013.48 1013.75 1014.02 1014.28 1014.49 1014.68 1014.85
1002.24 1002.29 1002.52 1002.91 1003.41 1003.94 1004.45 1004.90 1005.28 1005.59 1005.88 1006.18 1006.52 1006.91 1007.37 1007.85 1008.33 1008.80 1009.24 1009.65 1010.05 1010.46 1010.89 1011.34 1011.80 1012.24 1012.61 1012.89 1013.07 1013.15 1013.17 1013.16 1013.17 1013.22 1013.34 1013.53 1013.76 1014.01 1014.26 1014.48 1014.68 1014.86 1015.04
1001.91 1001.88 1002.03 1002.35 1002.80 1003.33 1003.87 1004.39 1004.85 1005.26 1005.64 1006.02 1006.41 1006.84 1007.30 1007.78 1008.27 1008.75 1009.21 1009.65 1010.10 1010.55 1011.01 1011.49 1011.96 1012.40 1012.78 1013.07 1013.27 1013.39 1013.45 1013.49 1013.54 1013.62 1013.75 1013.93 1014.13 1014.34 1014.54 1014.71 1014.87 1015.02 1015.19
1001.40 1001.23 1001.26 1001.49 1001.91 1002.44 1003.04 1003.66 1004.25 1004.80 1005.31 1005.80 1006.27 1006.76 1007.25 1007.76 1008.26 1008.76 1009.24 1009.72 1010.20 1010.69 1011.18 1011.68 1012.16 1012.61 1013.00 1013.31 1013.55 1013.71 1013.83 1013.92 1014.01 1014.12 1014.25 1014.40 1014.55 1014.69 1014.81 1014.92 1015.02 1015.13 1015.27
1000.68 1000.33 1000.22 1000.36 1000.74 1001.30 1001.99 1002.73 1003.49 1004.21 1004.89 1005.52 1006.11 1006.67 1007.21 1007.74 1008.27 1008.78 1009.29 1009.80 1010.31 1010.83 1011.35 1011.87 1012.37 1012.84 1013.25 1013.59 1013.87 1014.09 1014.26 1014.40 1014.52 1014.64 1014.75 1014.85 1014.93 1014.98 1015.01 1015.03 1015.06 1015.12 1015.24
999.79 999.26 999.00 999.06 999.41 1000.02 1000.81 1001.70 1002.64 1003.56 1004.41 1005.20 1005.91 1006.56 1007.16 1007.72 1008.26 1008.80 1009.32 1009.85 1010.39 1010.94 1011.48 1012.03 1012.55 1013.04 1013.49 1013.88 1014.20 1014.47 1014.69 1014.86 1015.00 1015.11 1015.17 1015.20 1015.19 1015.14 1015.07 1015.00 1014.96 1014.98 1015.08
998.86 998.15 997.76 997.75 998.09 998.75 999.65 1000.70 1001.81 1002.92 1003.95 1004.89 1005.72 1006.45 1007.10 1007.69 1008.24 1008.79 1009.32 1009.87 1010.43 1011.00 1011.57 1012.14 1012.70 1013.22 1013.71 1014.14 1014.51 1014.82 1015.07 1015.26 1015.38 1015.45 1015.45 1015.39 1015.27 1015.12 1014.96 1014.82 1014.72 1014.71 1014.80
998.05 997.21 996.72 996.66 997.00 997.70 998.70 999.87 1001.14 1002.40 1003.58 1004.64 1005.56 1006.35 1007.04 1007.66 1008.22 1008.77 1009.32 1009.88 1010.46 1011.05 1011.65 1012.25 1012.84 1013.40 1013.92 1014.38 1014.79 1015.12 1015.38 1015.55 1015.63 1015.63 1015.54 1015.38 1015.17 1014.93 1014.69 1014.49 1014.37 1014.35 1014.44
997.57 996.64 996.09 995.99 996.33 997.06 998.11 999.37 1000.73 1002.09 1003.37 1004.51 1005.49 1006.33 1007.04 1007.67 1008.25 1008.80 1009.36 1009.94 1010.54 1011.16 1011.78 1012.41 1013.02 1013.60 1014.14 1014.63 1015.04 1015.37 1015.61 1015.74 1015.76 1015.67 1015.49 1015.23 1014.93 1014.61 1014.32 1014.10 1013.97 1013.97 1014.09
997.58 996.62 996.04 995.91 996.23 996.96 998.02 999.30 1000.69 1002.08 1003.39 1004.56 1005.56 1006.41 1007.14 1007.78 1008.37 1008.94 1009.52 1010.13 1010.75 1011.39 1012.04 1012.67 1013.30 1013.88 1014.42 1014.90 1015.29 1015.59 1015.78 1015.85 1015.79 1015.62 1015.34 1015.00 1014.63 1014.26 1013.95 1013.73 1013.63 1013.66 1013.82
998.15 997.22 996.64 996.49 996.78 997.46 998.48 999.71 1001.05 1002.41 1003.68 1004.82 1005.81 1006.65 1007.38 1008.02 1008.63 1009.24 1009.85 1010.48 1011.14 1011.80 1012.45 1013.09 1013.70 1014.26 1014.77 1015.21 1015.56 1015.81 1015.94 1015.94 1015.80 1015.55 1015.21 1014.80 1014.38 1013.99 1013.68 1013.48 1013.42 1013.50 1013.71
999.29 998.42 997.87 997.70 997.94 998.54 999.45 1000.58 1001.81 1003.06 1004.25 1005.31 1006.25 1007.06 1007.78 1008.44 1009.07 1009.71 1010.36 1011.03 1011.71 1012.38 1013.03 1013.65 1014.22 1014.74 1015.19 1015.57 1015.85 1016.04 1016.11 1016.05 1015.86 1015.56 1015.17 1014.73 1014.30 1013.91 1013.62 1013.45 1013.42 1013.54 1013.78
1000.84 1000.07 999.56 999.38 999.55 1000.05 1000.83 1001.81 1002.89 1004.00 1005.05 1006.01 1006.87 1007.63 1008.33 1009.00 1009.66 1010.33 1011.03 1011.73 1012.43 1013.10 1013.72 1014.30 1014.81 1015.25 1015.63 1015.93 1016.15 1016.28 1016.31 1016.21 1016.00 1015.68 1015.29 1014.86 1014.44 1014.07 1013.80 1013.66 1013.66 1013.80 1014.04
1002.60 1001.95 1001.49 1001.31 1001.42 1001.81 1002.45 1003.27 1004.19 1005.13 1006.04 1006.88 1007.64 1008.35 1009.02 1009.68 1010.36 1011.06 1011.78 1012.50 1013.20 1013.85 1014.44 1014.95 1015.38 1015.74 1016.03 1016.27 1016.43 1016.52 1016.53 1016.43 1016.24 1015.95 1015.59 1015.20 1014.81 1014.47 1014.23 1014.10 1014.10 1014.23 1014.45
1004.36 1003.83 1003.44 1003.27 1003.33 1003.63 1004.15 1004.82 1005.58 1006.37 1007.13 1007.85 1008.52 1009.16 1009.79 1010.43 1011.11 1011.82 1012.54 1013.26 1013.94 1014.55 1015.08 1015.51 1015.86 1016.13 1016.35 1016.52 1016.64 1016.72 1016.74 1016.69 1016.56 1016.33 1016.04 1015.71 1015.37 1015.07 1014.84 1014.71 1014.69 1014.77 1014.94
1005.94 1005.53 1005.22 1005.06 1005.10 1005.34 1005.77 1006.32 1006.96 1007.62 1008.27 1008.88 1009.46 1010.02 1010.59 1011.20 1011.85 1012.53 1013.24 1013.93 1014.56 1015.12 1015.57 1015.93 1016.19 1016.38 1016.53 1016.66 1016.77 1016.86 1016.92 1016.94 1016.89 1016.77 1016.57 1016.32 1016.04 1015.77 1015.54 1015.39 1015.32 1015.35 1015.45
1007.22 1006.92 1006.68 1006.57 1006.61 1006.83 1007.20 1007.68 1008.24 1008.81 1009.37 1009.90 1010.39 1010.88 1011.39 1011.94 1012.53 1013.17 1013.82 1014.45 1015.02 1015.51 1015.89 1016.16 1016.34 1016.47 1016.57 1016.67 1016.78 1016.91 1017.04 1017.14 1017.19 1017.18 1017.08 1016.91 1016.69 1016.45 1016.23 1016.05 1015.93 1015.89 1015.91
1008.16 1007.96 1007.80 1007.73 1007.80 1008.02 1008.38 1008.84 1009.36 1009.88 1010.39 1010.85 1011.28 1011.71 1012.14 1012.61 1013.13 1013.69 1014.27 1014.82 1015.31 1015.72 1016.02 1016.22 1016.34 1016.42 1016.48 1016.57 1016.69 1016.86 1017.06 1017.24 1017.40 1017.48 1017.48 1017.39 1017.23 1017.03 1016.80 1016.60 1016.44 1016.34 1016.30
1008.81 1008.69 1008.60 1008.59 1008.69 1008.94 1009.31 1009.78 1010.29 1010.80 1011.27 1011.70 1012.08 1012.44 1012.81 1013.20 1013.63 1014.10 1014.59 1015.05 1015.46 1015.79 1016.02 1016.16 1016.23 1016.27 1016.31 1016.39 1016.53 1016.73 1016.97 1017.23 1017.46 1017.62 1017.70 1017.69 1017.58 1017.41 1017.20 1017.00 1016.82 1016.69 1016.61
1009.26 1009.21 1009.17 1009.21 1009.35 1009.63 1010.02 1010.50 1011.01 1011.53 1011.99 1012.40 1012.75 1013.07 1013.37 1013.68 1014.03 1014.40 1014.79 1015.17 1015.50 1015.76 1015.93 1016.03 1016.07 1016.08 1016.10 1016.18 1016.32 1016.53 1016.80 1017.08 1017.36 1017.57 1017.71 1017.75 1017.70 1017.58 1017.41 1017.23 1017.07 1016.95 1016.88
1009.62 1009.63 1009.63 1009.70 1009.86 1010.15 1010.55 1011.04 1011.56 1012.07 1012.54 1012.93 1013.26 1013.54 1013.79 1014.05 1014.32 1014.61 1014.91 1015.21 1015.47 1015.68 1015.81 1015.88 1015.89 1015.89 1015.91 1015.97 1016.09 1016.29 1016.54 1016.82 1017.10 1017.34 1017.51 1017.60 1017.61 1017.55 1017.45 1017.33 1017.23 1017.16 1017.14
1009.96 1010.02 1010.06 1010.13 1010.30 1010.58 1010.97 1011.44 1011.94 1012.45 1012.90 1013.29 1013.61 1013.86 1014.08 1014.28 1014.49 1014.72 1014.96 1015.20 1015.41 1015.57 1015.68 1015.73 1015.74 1015.73 1015.73 1015.77 1015.87 1016.02 1016.23 1016.48 1016.73 1016.96 1017.15 1017.28 1017.35 1017.37 1017.37 1017.35 1017.34 1017.37 1017.42
Thickness
5815 5815 5807 5807 5806 5805 5805 5804 5804 5803 5803 5801 5801 5799 5799 5798 5797 5797 5796 5796 5794 5793 5792 5791 5791 5789 5788 5787 5785 5784 5783 5782 5781 5780 5779 5778 5777 5776 5775 5774 5773 5773 5771
5816 5814 5807 5805 5804 5804 5804 5804 5803 5803 5803 5802 5800 5799 5797 5797 5796 5796 5796 5795 5794 5793 5792 5792 5792 5789 5787 5786 5784 5783 5782 5781 5780 5779 5778 5777 5777 5775 5774 5773 5773 5774 5771
5816 5813 5807 5804 5803 5803 5803 5803 5802 5802 5802 5801 5799 5798 5797 5796 5796 5795 5795 5793 5793 5792 5791 5790 5790 5788 5787 5785 5784 5782 5781 5780 5779 5779 5778 5779 5778 5775 5774 5773 5772 5771 5770
5816 5813 5809 5803 5802 5802 5802 5802 5801 5801 5800 5799 5798 5797 5796 5795 5795 5794 5794 5793 5792 5791 5790 5789 5788 5787 5786 5784 5783 5782 5781 5780 5779 5779 5780 5781 5780 5776 5774 5773 5772 5771 5770
5814 5812 5807 5803 5802 5801 5801 5800 5800 5800 5799 5798 5797 5796 5795 5795 5794 5793 5792 5791 5791 5789 5788 5787 5786 5786 5784 5783 5782 5781 5780 5780 5779 5780 5782 5782 5780 5777 5775 5773 5772 5771 5770
5813 5812 5807 5803 5801 5800 5800 5799 5799 5799 5799 5798 5796 5795 5795 5794 5793 5793 5792 5791 5790 5788 5788 5787 5785 5785 5784 5783 5782 5781 5780 5780 5780 5783 5782 5781 5780 5777 5775 5774 5773 5772 5770
5812 5812 5808 5802 5801 5800 5799 5799 5798 5798 5798 5797 5796 5795 5794 5793 5792 5792 5791 5790 5789 5788 5787 5786 5785 5783 5783 5782 5781 5781 5780 5780 5782 5784 5783 5781 5779 5777 5775 5774 5772 5771 5770
5813 5812 5809 5804 5801 5799 5798 5798 5797 5796 5796 5795 5794 5793 5793 5792 5791 5791 5790 5789 5788 5787 5786 5785 5784 5783 5782 5781 5781 5780 5780 5780 5783 5784 5783 5781 5778 5776 5775 5774 5772 5771 5770
5814 5812 5811 5808 5803 5800 5798 5797 5796 5795 5795 5794 5793 5793 5792 5791 5791 5790 5789 5788 5787 5786 5785 5784 5782 5782 5781 5780 5780 5779 5779 5780 5783 5784 5783 5781 5778 5776 5774 5773 5772 5770 5769
5813 5812 5809 5808 5806 5804 5801 5797 5795 5795 5794 5793 5792 5792 5791 5791 5790 5789 5789 5787 5786 5785 5784 5782 5781 5781 5780 5779 5779 5779 5779 5780 5783 5784 5782 5780 5778 5775 5773 5772 5771 5769 5768
5810 5811 5810 5809 5807 5805 5803 5799 5797 5795 5793 5792 5792 5791 5792 5793 5793 5790 5788 5786 5785 5784 5783 5782 5781 5780 5780 5779 5779 5779 5780 5782 5783 5782 5781 5779 5777 5774 5772 5771 5769 5768 5767
5805 5808 5809 5807 5805 5804 5803 5800 5799 5797 5794 5793 5792 5792 5792 5791 5790 5790 5786 5785 5784 5783 5782 5781 5780 5781 5781 5782 5780 5780 5782 5784 5783 5781 5779 5776 5775 5773 5772 5770 5768 5767 5766
5806 5806 5808 5806 5804 5803 5802 5800 5798 5797 5794 5793 5792 5790 5789 5789 5790 5789 5788 5786 5785 5784 5783 5782 5782 5783 5783 5782 5781 5782 5782 5782 5782 5781 5778 5774 5773 5771 5770 5769 5767 5766 5764
5805 5805 5806 5805 5803 5801 5800 5799 5797 5796 5794 5792 5790 5789 5789 5788 5787 5786 5786 5786 5784 5783 5781 5782 5781 5780 5780 5780 5780 5780 5780 5780 5780 5779 5775 5772 5770 5769 5768 5767 5766 5765 5763
5804 5804 5804 5803 5800 5798 5796 5796 5796 5793 5793 5791 5788 5787 5786 5786 5785 5785 5783 5782 5782 5781 5781 5779 5779 5778 5777 5778 5778 5778 5777 5777 5777 5776 5774 5770 5769 5768 5766 5765 5764 5763 5762
5803 5803 5803 5802 5799 5797 5795 5793 5793 5792 5790 5790 5788 5786 5784 5785 5783 5783 5781 5779 5780 5779 5779 5778 5777 5777 5776 5775 5775 5775 5774 5774 5773 5773 5772 5770 5767 5766 5765 5763 5762 5762 5761
5804 5803 5802 5801 5799 5796 5795 5794 5793 5791 5790 5788 5786 5784 5783 5782 5781 5780 5779 5777 5777 5776 5775 5775 5775 5776 5775 5773 5772 5772 5772 5771 5770 5770 5771 5770 5768 5765 5763 5762 5761 5760 5760
5806 5802 5801 5802 5798 5795 5793 5791 5792 5790 5788 5786 5785 5783 5780 5779 5778 5777 5777 5775 5774 5774 5773 5772 5772 5771 5770 5770 5769 5770 5769 5768 5767 5768 5769 5768 5767 5766 5762 5760 5759 5758 5758
5806 5803 5800 5799 5797 5795 5792 5790 5789 5787 5786 5785 5783 5781 5779 5777 5776 5776 5774 5772 5772 5771 5771 5770 5768 5767 5766 5765 5766 5766 5767 5766 5765 5766 5766 5765 5764 5763 5762 5759 5757 5756 5756
5807 5803 5800 5797 5795 5793 5792 5790 5788 5786 5785 5784 5782 5778 5777 5776 5774 5773 5772 5769 5769 5768 5767 5765 5763 5762 5763 5762 5764 5763 5763 5763 5763 5763 5763 5763 5762 5762 5761 5759 5757 5756 5754
5806 5802 5799 5796 5794 5792 5790 5788 5784 5782 5782 5782 5780 5777 5775 5773 5772 5770 5771 5767 5766 5765 5763 5762 5760 5760 5760 5760 5760 5758 5760 5762 5761 5760 5760 5759 5759 5759 5758 5756 5756 5756 5753
5805 5802 5798 5795 5794 5792 5790 5786 5784 5782 5781 5780 5778 5775 5773 5771 5769 5770 5766 5766 5763 5761 5759 5758 5757 5757 5757 5758 5756 5754 5752 5753 5754 5758 5756 5755 5755 5755 5754 5754 5753 5752 5752
5805 5802 5800 5796 5793 5791 5789 5788 5784 5780 5779 5777 5774 5772 5771 5769 5767 5765 5763 5762 5760 5760 5757 5755 5754 5752 5752 5754 5755 5752 5748 5746 5748 5751 5750 5751 5751 5751 5750 5751 5750 5749 5748
5807 5805 5800 5796 5792 5790 5788 5786 5781 5777 5773 5772 5771 5770 5769 5766 5764 5762 5760 5758 5757 5757 5754 5754 5753 5752 5750 5750 5751 5752 5751 5749 5744 5743 5745 5747 5747 5746 5746 5748 5747 5745 5744
5809 5805 5800 5795 5791 5789 5787 5783 5779 5776 5774 5773 5770 5766 5765 5764 5762 5759 5757 5755 5753 5753 5751 5749 5749 5749 5749 5748 5748 5748 5747 5746 5746 5741 5737 5739 5742 5743 5743 5743 5742 5742 5741
5808 5804 5800 5793 5789 5787 5784 5781 5777 5773 5770 5768 5765 5763 5763 5762 5760 5756 5755 5752 5751 5750 5747 5746 5746 5745 5744 5743 5744 5745 5744 5742 5740 5739 5735 5733 5734 5736 5739 5739 5739 5739 5738